Regional Weather Roundup
Issued by NWS

Home | Current Version | Previous Version | Graphics & Text | Print | Product List | Glossary On
Versions: 1 2 3 4 5 6 7 8 9 10 11 12 13 14 15 16 17 18 19 20 21 22 23 24 25 26 27 28 29 30 31 32 33 34 35 36 37 38 39 40 41 42 43 44 45 46 47 48 49 50
000
ASUS43 KIND 182009
RWRIN

WEATHER ROUNDUP FOR INDIANA
NATIONAL WEATHER SERVICE INDIANAPOLIS IN
300 PM EST SUN FEB 18 2018

NOTE: "FAIR" INDICATES FEW OR NO CLOUDS BELOW 12,000 FEET WITH NO
SIGNIFICANT WEATHER AND/OR OBSTRUCTIONS TO VISIBILITY.

* - STATION DOES NOT REPORT WEATHER SUCH AS PRECIPITATION OR FOG.

+ - STATION NOT QUALITY CONTROLLED BY THE NATIONAL WEATHER SERVICE.
    USE DATA WITH CAUTION...ESPECIALLY DEWPOINT AND RELATIVE
    HUMIDITY OBSERVATIONS.

INZ001>003-010>013-019-020-182100-
NORTHWEST INDIANA

CITY           SKY/WX    TMP DP  RH WIND       PRES   REMARKS
GARY /AIRPORT/ PTSUNNY   36  27  69 S15       30.16F WCI  26
KNOX *+        FAIR      34  30  86 SE16      30.20F WCI  23
LA PORTE +     FAIR      33  26  76 SE9G16    30.18F WCI  25
MICHIGAN CITY+ FAIR      34  27  75 S10G16    30.19F HAZE    WCI  26
MONTICELLO +   FAIR      40  31  69 S10G16    30.18F WCI  34
RENSSELAER +   FAIR      36  28  75 SE12      30.17F WCI  27
VALPARAISO     FAIR      35  28  75 SE13      30.17F WCI  26

$$

LMZ046-743>745-182100-
SOUTHERN LAKE MICHIGAN

STATION/POSITION TIME  TEMP    WIND        PRES    WAVE
                       AIR SEA DIR/SP/G            HT
                 (UTC) (F)     (DEG/KT/KT) (MB)    (FT)
BURNS HARBOR     1940   34     160/  8/ 18 1022.4F
MICHIGAN CITY    1940   33     150/ 15/ 18   N/A

$$

INZ004-005-014>016-021>024-182100-
NORTH CENTRAL INDIANA

CITY           SKY/WX    TMP DP  RH WIND       PRES   REMARKS
ELKHART        FAIR      32  25  74 S12       30.21  WCI  23
GOSHEN         FAIR      36  27  69 SE12      30.22F WCI  28
LOGANSPORT +   FAIR      37  32  81 SE9       30.21F WCI  31
PERU/GRISSOM   FAIR      39  38  95 SE12      30.20F WCI  32
ROCHESTER +    FAIR      37  32  81 SE10      30.22F WCI  30
SOUTH BEND     FAIR      32  25  75 SE15      30.20F WCI  22
WARSAW +       FAIR      34  28  80 SE9       30.23F WCI  26

$$

INZ006>009-017-018-025>027-182100-
NORTHEAST INDIANA

CITY           SKY/WX    TMP DP  RH WIND       PRES   REMARKS
AUBURN +       FAIR      34  30  86 SE7       30.26F WCI  28
FORT WAYNE     PTSUNNY   37  30  75 S6        30.26F WCI  32
HUNTINGTON +   FAIR      37  30  77 SE9       30.24F WCI  30
KENDALLVILLE + FAIR      34  28  78 S10       30.24F WCI  26

$$

INZ028-029-035-036-043>045-051>053-182100-
WEST CENTRAL INDIANA

CITY           SKY/WX    TMP DP  RH WIND       PRES   REMARKS
CRAWFORDSVL +  FAIR      42  33  69 SE14      30.18F
GREENCASTLE +  FAIR      45  30  57 SE10      30.19F
LAFAYETTE      FAIR      41  32  70 SE10      30.19F
TERRE HAUTE    FAIR      46  34  62 SE14      30.18F

$$

INZ030>032-037>040-046>048-054>057-064-065-182100-
CENTRAL INDIANA

CITY           SKY/WX    TMP DP  RH WIND       PRES   REMARKS
COLUMBUS       MOSUNNY   46  27  46 S8        30.23F
FISHERS *+     FAIR      43  36  75 S10G16    30.21
FRANKFORT +    FAIR      45  36  70 S10       30.21F
GREENWOOD *+   FAIR     N/A N/A N/A S9        30.23F
INDIANAPOLIS   PTSUNNY   45  31  58 SE13      30.21F
-EAGLE CREEK   FAIR      45  30  55 SE12      30.20F
KOKOMO +       FAIR      40  34  79 SE14      30.22F WCI  32
MARION +       FAIR      39  32  76 SE9       30.23F WCI  32
MT COMFORT *+  FAIR      43  36  75 S9        30.22F
SHELBYVILLE    FAIR      46  34  62 SE12      30.22F
ZIONSVILLE +   FAIR      42  32  68 SE10      30.21F

$$

INZ033-034-041-042-049-050-058-059-182100-
EAST CENTRAL INDIANA

CITY           SKY/WX    TMP DP  RH WIND       PRES   REMARKS
MUNCIE         FAIR      44  31  60 S9        30.23F
RICHMOND +     FAIR      41  32  70 SE12      30.24F

$$

INZ060-061-067>069-081>083-085>088-182100-
SOUTHWEST INDIANA

CITY           SKY/WX    TMP DP  RH WIND       PRES   REMARKS
EVANSVILLE     FAIR      49  35  58 SE13G20   30.19F
HUNTINGBURG +  FAIR      51  34  52 SE9       30.21F
WASHINGTON +   FAIR      49  31  49 SE13      30.20F

$$

INZ062-063-066-070>080-084-089>092-182100-
SOUTH CENTRAL AND SOUTHEAST INDIANA

CITY           SKY/WX    TMP DP  RH WIND       PRES   REMARKS
BATESVILLE +   SUNNY     45  34  65 MISG      30.23F
BEDFORD +      FAIR      48  32  53 SE7       30.21F
BLOOMINGTON    FAIR      47  32  56 S14       30.19F
FRENCH LICK *+ FAIR      50  27  40 S9        30.20F
MADISON *+     FAIR      48  32  53 SE7       30.25F
NORTH VERNON + FAIR      45  32  61 SE8       30.23F
SEYMOUR +      FAIR      48  34  57 SE9       30.24F

$$




USA.gov is the U.S. government's official web portal to all federal, state and local government web resources and services.